This is the latest recevied weather packets stored in our database for station/object KA3RQR. If no packets are shown the sender has not sent any weather packets the latest 10 day(s).
| Time | Temp. | Humidity | Pressure | Rain* | Wind** | Luminosity | Snow |
|---|---|---|---|---|---|---|---|
| 1778188307 | 15.56° C | 58% | 1008.8 hPa | 0 mm | - | 374 W/m² | - |
| 1778188005 | 15.56° C | 59% | 1009 hPa | 0 mm | - | 397 W/m² | - |
| 1778187701 | 16.11° C | 58% | 1009 hPa | 0 mm | - | 411 W/m² | - |
| 1778187398 | 17.22° C | 58% | 1009 hPa | 0 mm | - | 441 W/m² | - |
| 1778187094 | 17.22° C | 58% | 1009.1 hPa | 0 mm | - | 422 W/m² | - |
| 1778186791 | 16.67° C | 57% | 1009 hPa | 0 mm | - | 441 W/m² | - |
| 1778186489 | 16.11° C | 60% | 1008.8 hPa | 0 mm | - | 463 W/m² | - |
| 1778186186 | 16.11° C | 58% | 1009 hPa | 0 mm | - | 483 W/m² | - |
| 1778185884 | 16.67° C | 58% | 1009 hPa | 0 mm | - | 507 W/m² | - |
| 1778185579 | 16.67° C | 58% | 1008.7 hPa | 0 mm | - | 522 W/m² | - |
| 1778185276 | 16.67° C | 56% | 1008.8 hPa | 0 mm | - | 534 W/m² | - |
| 1778184971 | 16.67° C | 56% | 1008.8 hPa | 0 mm | - | 540 W/m² | - |
| 1778184668 | 16.67° C | 57% | 1009 hPa | 0 mm | - | 519 W/m² | - |
| 1778184363 | 15.56° C | 57% | 1009.1 hPa | 0 mm | - | 539 W/m² | - |
| 1778184060 | 16.11° C | 57% | 1008.9 hPa | 0 mm | - | 540 W/m² | - |
| 1778183757 | 16.67° C | 57% | 1009 hPa | 0 mm | - | 576 W/m² | - |
| 1778183454 | 16.67° C | 61% | 1008.8 hPa | 0 mm | - | 589 W/m² | - |
| 1778183150 | 16.11° C | 59% | 1008.8 hPa | 0 mm | - | 601 W/m² | - |
| 1778182846 | 17.22° C | 55% | 1008.8 hPa | 0 mm | - | 609 W/m² | - |
| 1778182544 | 17.22° C | 52% | 1008.8 hPa | 0 mm | - | 586 W/m² | - |
| 1778182241 | 16.67° C | 50% | 1008.9 hPa | 0 mm | - | 575 W/m² | - |
| 1778181937 | 16.67° C | 50% | 1009.3 hPa | 0 mm | - | 559 W/m² | - |
| 1778181634 | 17.22° C | 48% | 1009.2 hPa | 0 mm | - | 576 W/m² | - |
| 1778181329 | 16.67° C | 57% | 1009.4 hPa | 0 mm | - | 376 W/m² | - |
| 1778181027 | 16.67° C | 52% | 1009.5 hPa | 0 mm | - | 156 W/m² | - |
* Rain latest hour (hover to see other rain measurements)
** Current wind speed in m/s (hover to see current wind gust speed)